| time (UTC) | temp F | wind direction | speed knots | gust knots | rain 1hr in | rain 24hr in | rain mn in | humidity % | barometer mb |
| 20260506145403 | 52 | 297 | 1.7 | 6.1 | 0.18 | 0.24 | 0.24 | 95 | 1009.7 |
| 20260506144503 | 53 | 324 | 2.6 | 7.8 | 0.02 | 0.08 | 0.08 | 92 | 1009.6 |
| 20260506143603 | 55 | 299 | 1.7 | 6.1 | 0.00 | 0.06 | 0.06 | 85 | 1009.1 |
| 20260506142703 | 56 | 315 | 3.5 | 7.8 | 0.00 | 0.06 | 0.06 | 82 | 1009.1 |
| 20260506141803 | 60 | 202 | 4.3 | 9.6 | 0.00 | 0.06 | 0.06 | 76 | 1009.0 |
| 20260506140903 | 60 | 192 | 2.6 | 9.6 | 0.00 | 0.06 | 0.06 | 74 | 1008.7 |
| 20260506140003 | 61 | 201 | 2.6 | 9.6 | 0.00 | 0.06 | 0.06 | 72 | 1008.8 |
| 20260506135403 | 62 | 206 | 2.6 | 9.6 | 0.00 | 0.06 | 0.06 | 74 | 1008.8 |
| 20260506134503 | 61 | 201 | 6.1 | 9.6 | 0.00 | 0.06 | 0.06 | 73 | 1008.8 |
| 20260506133603 | 62 | 211 | 5.2 | 11.3 | 0.00 | 0.06 | 0.06 | 76 | 1008.8 |
| 20260506132703 | 60 | 209 | 5.2 | 7.8 | 0.00 | 0.06 | 0.06 | 80 | 1009.0 |
| 20260506131803 | 59 | 212 | 2.6 | 7.0 | 0.00 | 0.06 | 0.06 | 81 | 1009.1 |
| 20260506130903 | 58 | 198 | 4.3 | 7.8 | 0.00 | 0.06 | 0.06 | 82 | 1009.0 |
| 20260506130004 | 57 | 208 | 4.3 | 9.6 | 0.00 | 0.06 | 0.06 | 82 | 1009.1 |
| 20260506125403 | 58 | 198 | 6.1 | 9.6 | 0.00 | 0.06 | 0.06 | 81 | 1009.0 |
| 20260506124503 | 58 | 214 | 4.3 | 9.6 | 0.00 | 0.06 | 0.06 | 83 | 1009.0 |
| 20260506123603 | 58 | 203 | 4.3 | 9.6 | 0.00 | 0.06 | 0.06 | 82 | 1009.0 |
| 20260506122703 | 59 | 207 | 4.3 | 9.6 | 0.00 | 0.06 | 0.06 | 81 | 1009.0 |
| 20260506121803 | 59 | 197 | 3.5 | 7.0 | 0.00 | 0.06 | 0.06 | 84 | 1009.0 |
| 20260506120903 | 58 | 203 | 3.5 | 9.6 | 0.00 | 0.06 | 0.06 | 82 | 1009.1 |
| 20260506120003 | 59 | 206 | 5.2 | 9.6 | 0.00 | 0.06 | 0.06 | 83 | 1009.1 |
| 20260506115403 | 58 | 199 | 6.1 | 11.3 | 0.00 | 0.06 | 0.06 | 83 | 1009.0 |
| 20260506114503 | 58 | 204 | 7.0 | 9.6 | 0.00 | 0.06 | 0.06 | 83 | 1009.1 |
| 20260506113603 | 58 | 205 | 3.5 | 9.6 | 0.00 | 0.06 | 0.06 | 84 | 1009.2 |
| 20260506112703 | 58 | 201 | 2.6 | 9.6 | 0.00 | 0.06 | 0.06 | 83 | 1009.3 |
| 20260506111803 | 57 | 204 | 4.3 | 9.6 | 0.00 | 0.06 | 0.06 | 83 | 1009.3 |
| 20260506110903 | 57 | 201 | 4.3 | 7.8 | 0.00 | 0.06 | 0.06 | 86 | 1009.3 |
| 20260506110003 | 57 | 186 | 3.5 | 9.6 | 0.00 | 0.06 | 0.06 | 87 | 1009.4 |
| 20260506105403 | 56 | 193 | 3.5 | 9.6 | 0.00 | 0.06 | 0.06 | 87 | 1009.4 |
| 20260506104503 | 56 | 200 | 3.5 | 9.6 | 0.00 | 0.06 | 0.06 | 87 | 1009.3 |
| 20260506103603 | 56 | 202 | 4.3 | 9.6 | 0.00 | 0.06 | 0.06 | 89 | 1009.4 |
| 20260506102703 | 56 | 190 | 7.0 | 9.6 | 0.00 | 0.07 | 0.06 | 89 | 1009.4 |
| 20260506101803 | 55 | 199 | 4.3 | 7.8 | 0.00 | 0.07 | 0.06 | 91 | 1009.3 |
| 20260506100903 | 55 | 196 | 3.5 | 6.1 | 0.00 | 0.07 | 0.06 | 90 | 1009.3 |
| 20260506100003 | 55 | 197 | 1.7 | 7.8 | 0.00 | 0.07 | 0.06 | 89 | 1009.3 |
| 20260506095403 | 54 | 189 | 4.3 | 7.8 | 0.00 | 0.07 | 0.06 | 90 | 1009.3 |
| 20260506094503 | 54 | 203 | 1.7 | 6.1 | 0.00 | 0.07 | 0.06 | 92 | 1009.3 |
| 20260506093603 | 54 | 212 | 1.7 | 7.8 | 0.00 | 0.07 | 0.06 | 92 | 1009.1 |
| 20260506092703 | 54 | 177 | 2.6 | 7.8 | 0.00 | 0.07 | 0.06 | 93 | 1009.1 |
| 20260506091803 | 54 | 190 | 0.9 | 6.1 | 0.00 | 0.07 | 0.06 | 93 | 1009.0 |
| 20260506090903 | 54 | 198 | 3.5 | 6.1 | 0.00 | 0.07 | 0.06 | 94 | 1008.9 |
| 20260506090003 | 53 | 205 | 0.0 | 3.5 | 0.00 | 0.07 | 0.06 | 94 | 1008.9 |
| 20260506085403 | 53 | 202 | 1.7 | 5.2 | 0.00 | 0.07 | 0.06 | 95 | 1008.9 |
| 20260506084503 | 53 | 203 | 0.9 | 5.2 | 0.00 | 0.07 | 0.06 | 96 | 1008.7 |
| 20260506083603 | 52 | 187 | 0.0 | 5.2 | 0.00 | 0.07 | 0.06 | 96 | 1008.7 |
| 20260506082703 | 52 | 210 | 0.9 | 3.5 | 0.00 | 0.07 | 0.06 | 96 | 1008.7 |
| 20260506081803 | 52 | 187 | 0.0 | 3.5 | 0.00 | 0.07 | 0.06 | 97 | 1008.6 |
| 20260506080903 | 51 | 217 | 0.0 | 3.5 | 0.00 | 0.07 | 0.06 | 98 | 1008.5 |
| 20260506072703 | 51 | 170 | 0.9 | 3.5 | 0.00 | 0.07 | 0.06 | 99 | 1008.3 |
| 20260506071803 | 51 | 199 | 0.0 | 3.5 | 0.00 | 0.07 | 0.06 | 99 | 1008.3 |
| 20260506070903 | 51 | 180 | 0.0 | 1.7 | 0.00 | 0.07 | 0.06 | 99 | 1008.1 |
| 20260506061803 | 50 | 0 | 0.0 | 0.0 | 0.02 | 0.07 | 0.06 | 99 | 1007.9 |
| 20260506060903 | 50 | 0 | 0.0 | 0.0 | 0.04 | 0.07 | 0.06 | 99 | 1007.8 |
| 20260506050903 | 51 | 337 | 0.0 | 1.7 | 0.01 | 0.05 | 0.02 | 99 | 1007.6 |
| 20260506044503 | 51 | 225 | 0.0 | 1.7 | 0.00 | 0.04 | 0.01 | 99 | 1007.3 |
| 20260506043603 | 51 | 0 | 0.0 | 0.0 | 0.00 | 0.05 | 0.01 | 99 | 1007.3 |
| 20260506042703 | 51 | 0 | 0.0 | 0.0 | 0.00 | 0.07 | 0.01 | 99 | 1007.2 |
| 20260506041803 | 51 | 0 | 0.0 | 0.0 | 0.01 | 0.07 | 0.01 | 99 | 1007.2 |
| 20260506040903 | 51 | 0 | 0.0 | 0.0 | 0.01 | 0.07 | 0.01 | 99 | 1007.2 |
| 20260506040003 | 51 | 0 | 0.0 | 0.0 | 0.01 | 0.08 | 0.01 | 99 | 1007.2 |
| 20260506035403 | 51 | 0 | 0.0 | 0.0 | 0.01 | 0.08 | 0.01 | 99 | 1007.2 |
| 20260506034503 | 51 | 0 | 0.0 | 0.0 | 0.01 | 0.09 | 0.01 | 99 | 1007.2 |
| 20260506033603 | 51 | 0 | 0.0 | 0.0 | 0.01 | 0.09 | 0.01 | 99 | 1007.3 |
| 20260506032703 | 51 | 0 | 0.0 | 0.0 | 0.01 | 0.11 | 0.01 | 99 | 1007.4 |
| 20260506031803 | 51 | 0 | 0.0 | 0.0 | 0.00 | 0.09 | 0.00 | 99 | 1007.4 |
| 20260506030903 | 51 | 0 | 0.0 | 0.0 | 0.00 | 0.11 | 0.00 | 99 | 1007.4 |
| 20260506030003 | 51 | 0 | 0.0 | 0.0 | 0.00 | 0.11 | 0.00 | 99 | 1007.5 |
| 20260506025403 | 51 | 0 | 0.0 | 0.0 | 0.00 | 0.11 | 0.00 | 99 | 1007.5 |
| 20260506024503 | 51 | 0 | 0.0 | 0.0 | 0.00 | 0.11 | 0.00 | 99 | 1007.5 |
| 20260506023603 | 51 | 0 | 0.0 | 0.0 | 0.00 | 0.12 | 0.00 | 99 | 1007.5 |
| 20260506022703 | 51 | 0 | 0.0 | 0.0 | 0.00 | 0.12 | 0.00 | 99 | 1007.6 |
| 20260506021803 | 51 | 0 | 0.0 | 0.0 | 0.00 | 0.12 | 0.00 | 99 | 1007.7 |
| 20260506020903 | 51 | 0 | 0.0 | 0.0 | 0.00 | 0.12 | 0.00 | 99 | 1007.6 |
| 20260506020003 | 51 | 0 | 0.0 | 0.0 | 0.00 | 0.12 | 0.00 | 99 | 1007.7 |
| 20260506015403 | 51 | 0 | 0.0 | 0.0 | 0.00 | 0.12 | 0.00 | 99 | 1007.6 |
| 20260506014503 | 51 | 0 | 0.0 | 0.0 | 0.00 | 0.12 | 0.00 | 99 | 1007.8 |
| 20260506013603 | 51 | 0 | 0.0 | 0.0 | 0.00 | 0.12 | 0.00 | 99 | 1007.9 |
| 20260506012703 | 51 | 0 | 0.0 | 0.0 | 0.00 | 0.12 | 0.00 | 99 | 1007.9 |
| 20260506011803 | 51 | 0 | 0.0 | 0.0 | 0.00 | 0.13 | 0.00 | 98 | 1008.0 |
| 20260506010903 | 51 | 0 | 0.0 | 0.0 | 0.00 | 0.13 | 0.00 | 98 | 1008.0 |
| 20260506010003 | 51 | 0 | 0.0 | 0.0 | 0.00 | 0.13 | 0.00 | 98 | 1008.1 |
| 20260506005403 | 51 | 0 | 0.0 | 0.0 | 0.00 | 0.13 | 0.00 | 98 | 1008.1 |
| 20260506004503 | 51 | 0 | 0.0 | 0.0 | 0.00 | 0.13 | 0.00 | 98 | 1008.4 |
| 20260506003603 | 51 | 0 | 0.0 | 0.0 | 0.00 | 0.13 | 0.00 | 97 | 1008.5 |
| 20260506002703 | 51 | 0 | 0.0 | 0.0 | 0.00 | 0.13 | 0.00 | 98 | 1008.5 |
| 20260506001803 | 51 | 0 | 0.0 | 0.0 | 0.00 | 0.14 | 0.00 | 97 | 1008.5 |
| 20260506000903 | 51 | 0 | 0.0 | 0.0 | 0.00 | 0.14 | 0.00 | 97 | 1008.7 |
| 20260506000003 | 51 | 202 | 0.0 | 1.7 | 0.00 | 0.14 | 0.00 | 98 | 1008.9 |
| 20260505235403 | 51 | 0 | 0.0 | 0.0 | 0.00 | 0.15 | 0.00 | 99 | 1009.0 |
| 20260505234503 | 51 | 0 | 0.0 | 0.0 | 0.00 | 0.15 | 0.00 | 99 | 1009.0 |
| 20260505233603 | 50 | 0 | 0.0 | 0.0 | 0.00 | 0.17 | 0.00 | 99 | 1009.0 |
| 20260505232703 | 50 | 0 | 0.0 | 0.0 | 0.00 | 0.17 | 0.00 | 99 | 1009.1 |
| 20260505231803 | 50 | 0 | 0.0 | 0.0 | 0.00 | 0.17 | 0.00 | 99 | 1009.0 |
| 20260505230903 | 50 | 0 | 0.0 | 0.0 | 0.00 | 0.18 | 0.00 | 99 | 1009.0 |
| 20260505230003 | 50 | 0 | 0.0 | 0.0 | 0.00 | 0.20 | 0.00 | 99 | 1009.2 |
| 20260505225403 | 50 | 0 | 0.0 | 0.0 | 0.00 | 0.20 | 0.20 | 99 | 1009.3 |
| 20260505224503 | 49 | 0 | 0.0 | 0.0 | 0.00 | 0.20 | 0.20 | 99 | 1009.3 |
| 20260505223603 | 49 | 0 | 0.0 | 0.0 | 0.00 | 0.20 | 0.20 | 99 | 1009.2 |
| 20260505222703 | 49 | 0 | 0.0 | 0.0 | 0.00 | 0.20 | 0.20 | 99 | 1009.0 |
| 20260505221803 | 49 | 0 | 0.0 | 0.0 | 0.00 | 0.20 | 0.20 | 99 | 1009.1 |
| 20260505220903 | 49 | 0 | 0.0 | 0.0 | 0.00 | 0.20 | 0.20 | 99 | 1009.1 |
| 20260505220003 | 49 | 0 | 0.0 | 0.0 | 0.00 | 0.20 | 0.20 | 99 | 1009.3 |
| 20260505215403 | 49 | 0 | 0.0 | 0.0 | 0.00 | 0.20 | 0.20 | 99 | 1009.4 |
| 20260505214503 | 49 | 0 | 0.0 | 0.0 | 0.00 | 0.20 | 0.20 | 99 | 1009.5 |
| 20260505213603 | 49 | 0 | 0.0 | 0.0 | 0.00 | 0.20 | 0.20 | 99 | 1009.6 |
| 20260505212703 | 49 | 0 | 0.0 | 0.0 | 0.00 | 0.20 | 0.20 | 99 | 1009.8 |
| 20260505211803 | 49 | 0 | 0.0 | 0.0 | 0.00 | 0.20 | 0.20 | 99 | 1009.8 |
| 20260505210903 | 49 | 0 | 0.0 | 0.0 | 0.00 | 0.20 | 0.20 | 98 | 1009.7 |
| 20260505210003 | 50 | 0 | 0.0 | 0.0 | 0.00 | 0.20 | 0.20 | 97 | 1009.7 |
| 20260505205403 | 51 | 0 | 0.0 | 0.0 | 0.00 | 0.20 | 0.20 | 97 | 1009.8 |
| 20260505204503 | 50 | 0 | 0.0 | 0.0 | 0.00 | 0.20 | 0.20 | 97 | 1009.9 |
| 20260505203603 | 51 | 0 | 0.0 | 0.0 | 0.00 | 0.20 | 0.20 | 96 | 1010.1 |
| 20260505202703 | 51 | 0 | 0.0 | 0.0 | 0.00 | 0.20 | 0.20 | 97 | 1009.8 |
| 20260505201803 | 50 | 0 | 0.0 | 0.0 | 0.00 | 0.20 | 0.20 | 97 | 1009.7 |
| 20260505200903 | 50 | 0 | 0.0 | 0.0 | 0.00 | 0.20 | 0.20 | 97 | 1009.7 |
| 20260505200003 | 50 | 0 | 0.0 | 0.0 | 0.00 | 0.20 | 0.20 | 96 | 1009.3 |
| 20260505195403 | 50 | 0 | 0.0 | 0.0 | 0.00 | 0.20 | 0.20 | 96 | 1009.3 |
| 20260505194503 | 51 | 0 | 0.0 | 0.0 | 0.00 | 0.20 | 0.20 | 95 | 1009.1 |
| 20260505193603 | 51 | 0 | 0.0 | 0.0 | 0.00 | 0.20 | 0.20 | 94 | 1009.1 |
| 20260505192703 | 52 | 0 | 0.0 | 0.0 | 0.00 | 0.20 | 0.20 | 93 | 1009.1 |
| 20260505191803 | 52 | 0 | 0.0 | 0.0 | 0.00 | 0.20 | 0.20 | 92 | 1009.0 |
| 20260505190903 | 53 | 286 | 0.0 | 1.7 | 0.00 | 0.20 | 0.20 | 90 | 1008.7 |
| 20260505190004 | 53 | 0 | 0.0 | 0.0 | 0.00 | 0.20 | 0.20 | 91 | 1008.5 |
| 20260505185403 | 53 | 0 | 0.0 | 0.0 | 0.00 | 0.20 | 0.20 | 90 | 1008.5 |
| 20260505184503 | 54 | 337 | 0.0 | 1.7 | 0.00 | 0.20 | 0.20 | 89 | 1008.4 |
| 20260505183603 | 54 | 348 | 0.0 | 1.7 | 0.00 | 0.20 | 0.20 | 89 | 1008.1 |
| 20260505182703 | 55 | 320 | 0.0 | 1.7 | 0.00 | 0.20 | 0.20 | 87 | 1008.2 |
| 20260505181803 | 56 | 309 | 0.9 | 7.8 | 0.00 | 0.20 | 0.20 | 86 | 1008.2 |
| 20260505180903 | 56 | 311 | 3.5 | 7.8 | 0.00 | 0.20 | 0.20 | 84 | 1008.3 |
| 20260505180003 | 58 | 260 | 3.5 | 6.1 | 0.00 | 0.20 | 0.20 | 83 | 1008.3 |
| 20260505175403 | 58 | 202 | 1.7 | 3.5 | 0.00 | 0.20 | 0.20 | 92 | 1008.2 |
| 20260505174503 | 58 | 0 | 0.0 | 0.0 | 0.00 | 0.20 | 0.20 | 89 | 1007.9 |
| 20260505173603 | 59 | 0 | 0.0 | 0.0 | 0.00 | 0.20 | 0.20 | 91 | 1007.9 |
| 20260505172703 | 59 | 0 | 0.0 | 0.0 | 0.00 | 0.20 | 0.20 | 90 | 1007.9 |
| 20260505171803 | 60 | 0 | 0.0 | 0.0 | 0.00 | 0.20 | 0.20 | 90 | 1007.8 |
| 20260505170903 | 62 | 0 | 0.0 | 0.0 | 0.00 | 0.20 | 0.20 | 85 | 1007.9 |
| 20260505170003 | 60 | 0 | 0.0 | 0.0 | 0.00 | 0.20 | 0.20 | 90 | 1007.9 |
| 20260505165403 | 60 | 0 | 0.0 | 0.0 | 0.00 | 0.20 | 0.20 | 88 | 1008.0 |
| 20260505164503 | 60 | 90 | 0.0 | 1.7 | 0.00 | 0.20 | 0.20 | 88 | 1008.0 |
| 20260505163603 | 59 | 143 | 0.0 | 3.5 | 0.00 | 0.20 | 0.20 | 89 | 1008.1 |
| 20260505162703 | 59 | 121 | 0.9 | 5.2 | 0.00 | 0.20 | 0.20 | 87 | 1008.1 |
| 20260505161803 | 59 | 156 | 1.7 | 5.2 | 0.00 | 0.20 | 0.20 | 88 | 1008.2 |
| 20260505160903 | 59 | 162 | 1.7 | 3.5 | 0.00 | 0.20 | 0.20 | 91 | 1008.1 |
| 20260505152703 | 61 | 193 | 0.9 | 3.5 | 0.00 | 0.20 | 0.20 | 80 | 1007.9 |
| 20260505151803 | 63 | 229 | 0.9 | 5.2 | 0.00 | 0.20 | 0.20 | 77 | 1007.9 |
| 20260505150903 | 64 | 232 | 3.5 | 5.2 | 0.00 | 0.20 | 0.20 | 75 | 1007.9 |